Simultaneous Nadir Overpasses (SNOs) Predictions

Prediction of SNOs between GOES-17 and AQUA Satellite Orbit:

Table of predicted SNOs for the next 14.0 days since TLE Epoch: 11/2/2024
Index Date Time (GOES-17) GOES-17 Lat,Lon AQUA Lat,Lon Distance(km) Time Diff (sec)
1 11/02/2024 09:04:25 -0.01,-104.70 -0.76,-101.24 393.83 80
2 11/02/2024 21:24:16 0.01,-104.68 -0.26,-106.04 154.85 80
3 11/04/2024 21:08:41 -0.00,-104.67 0.66,-101.57 352.14 80
4 11/05/2024 09:28:22 0.01,-104.69 0.35,-106.33 186.76 80
5 11/07/2024 09:07:24 0.00,-104.67 -0.58,-101.85 320.50 80
6 11/07/2024 21:27:12 -0.00,-104.64 -0.46,-106.64 228.10 80
7 11/09/2024 21:11:32 0.00,-104.63 0.55,-102.16 281.02 80
8 11/10/2024 09:31:11 0.00,-104.66 0.50,-106.91 256.50 80
9 11/12/2024 09:10:08 -0.00,-104.65 -0.51,-102.42 254.04 80
10 11/12/2024 21:29:55 -0.00,-104.61 -0.54,-107.20 294.21 80
11 11/14/2024 21:14:08 -0.01,-104.60 0.42,-102.69 218.18 80
12 11/15/2024 09:33:46 0.02,-104.63 0.60,-107.43 318.05 80
